Content
SEND FEEDBACK

Daily
Averages
Monthly
Summary
United States of America

MERIZO, GUAM


Home > North America > United States > Guam
Elevation: 3 meters     Latitude: 13 14N     Longitude: 144 39E

WEATHER
 
SELECT A DAY
Number of Records: 351,895;   Date Range: 1/1/95 - 10/24/14
 
SHARE

PRINT THIS DATA

[ ← Previous Day ]
WEATHER ALMANAC - 4 FEBRUARY, 2013
[ Next Day → ]
[ °F ]   °C
Weather ElementAverageHighLow
Temperature26.2 °C29.1 °C (1:55 pm)24.6 °C (1:55 am)
Dewpoint21.6 °C22.2 °C (10:55 pm)20.4 °C (12:55 pm)
Humidity76.2 %83 % (1:55 am)60 % (12:55 pm)
Barometer1014.2 hPa1015.9 hPa (8:55 am)1012.5 hPa (3:52 pm)
Wind Speed26.4 km/h37 km/h (11:55 am)
Wind Gust44.4 km/h (2:24 am)
Weather ElementAverage
Visibility16.1 km
Wind DirectionENE (67.3 °)

Weather ElementTotal
Precipitation---
Cooling Degree Days8.6 (Base 18.3)
Growing Degree Days16.9 (Base 10)
Averaged from 45 records on 4 February, 2013
WEATHER CONDITIONS BREAKOUT
WIND DIRECTION BREAKOUT
WEATHER BY HOUR - 4 FEBRUARY, 2013
[ °F ]   °C
Local TimeTemperatureDewpointHumidityBarometerVisibilityWind DirectionWind SpeedGust SpeedPrecipitationEventsConditions
1:55 AM24.6 °C21.5 °C83 %1014.2 hPa16.1 kmENE (60°)25.9 km/hClear
2:24 AM25 °C22 °C83 %1013.9 hPa16.1 kmENE (70°)33.3 km/h44.4 km/hMostly Cloudy
2:32 AM25 °C22 °C83 %1013.9 hPa16.1 kmENE (70°)25.9 km/h44.4 km/hMostly Cloudy
2:55 AM24.6 °C21.5 °C83 %1013.9 hPa16.1 kmENE (70°)29.6 km/hPartly Cloudy
3:55 AM24.7 °C21.7 °C83 %1013.5 hPa16.1 kmENE (70°)25.9 km/hMostly Cloudy
4:20 AM25 °C21 °C78 %1013.2 hPa16.1 kmENE (60°)29.6 km/hMostly Cloudy
4:24 AM25 °C21 °C78 %1013.5 hPa16.1 kmENE (60°)25.9 km/hMostly Cloudy
4:55 AM24.9 °C21.3 °C80 %1013.5 hPa16.1 kmENE (60°)27.8 km/hScattered Clouds
5:55 AM24.7 °C21.3 °C81 %1013.9 hPa16.1 kmENE (60°)27.8 km/hPartly Cloudy
6:55 AM24.7 °C21.6 °C83 %1014.6 hPa16.1 kmENE (70°)25.9 km/hMostly Cloudy
7:55 AM25.6 °C20.7 °C74 %1015.2 hPa16.1 kmENE (70°)27.8 km/hScattered Clouds
8:55 AM26.6 °C21 °C71 %1015.9 hPa16.1 kmENE (60°)27.8 km/h40.7 km/hScattered Clouds
9:11 AM26 °C22 °C78 %1015.9 hPa16.1 kmENE (70°)27.8 km/hMostly Cloudy
9:20 AM27 °C21 °C70 %1015.9 hPa16.1 kmEast (80°)33.3 km/h42.6 km/hScattered Clouds
9:39 AM27 °C22 °C74 %1015.9 hPa16.1 kmEast (80°)29.6 km/hMostly Cloudy
9:41 AM27 °C22 °C74 %1015.9 hPa16.1 kmEast (80°)35.2 km/hScattered Clouds
9:55 AM27.4 °C21.2 °C69 %1015.9 hPa16.1 kmENE (70°)35.2 km/hScattered Clouds
10:55 AM27.7 °C21.5 °C69 %1015.6 hPa16.1 kmEast (80°)31.5 km/hMostly Cloudy
10:58 AM28 °C22 °C70 %1015.6 hPa16.1 kmENE (60°)35.2 km/h42.6 km/hScattered Clouds
11:55 AM28.6 °C21.5 °C65 %1014.9 hPa16.1 kmEast (80°)37 km/hPartly Cloudy
12:55 PM28.9 °C20.4 °C60 %1014.2 hPa16.1 kmENE (60°)29.6 km/hPartly Cloudy
1:55 PM29.1 °C21.9 °C65 %1013.5 hPa16.1 kmEast (80°)27.8 km/h37 km/hScattered Clouds
2:00 PM29 °C22 °C66 %1013.5 hPa16.1 kmENE (70°)24.1 km/h37 km/hMostly Cloudy
2:21 PM29 °C22 °C66 %1012.9 hPa16.1 kmENE (70°)27.8 km/h40.7 km/hScattered Clouds
2:55 PM27.6 °C21 °C67 %1012.9 hPa16.1 kmENE (60°)27.8 km/hScattered Clouds
3:52 PM28 °C21 °C66 %1012.5 hPa16.1 kmNE (50°)31.5 km/hMostly Cloudy
3:55 PM27.9 °C21.2 °C67 %1012.5 hPa16.1 kmENE (60°)29.6 km/hMostly Cloudy
4:01 PM28 °C22 °C70 %1012.5 hPa16.1 kmENE (60°)27.8 km/hScattered Clouds
4:03 PM27 °C22 °C74 %1012.5 hPa16.1 kmNE (50°)29.6 km/hMostly Cloudy
4:32 PM26 °C22 °C78 %1012.5 hPa16.1 kmENE (60°)27.8 km/hScattered Clouds
4:55 PM26.7 °C21.8 °C74 %1012.5 hPa16.1 kmENE (60°)24.1 km/hClear
5:55 PM26 °C21.4 °C76 %1012.9 hPa16.1 kmENE (70°)25.9 km/hScattered Clouds
6:55 PM25.4 °C21.8 °C80 %1013.5 hPa16.1 kmNE (50°)20.4 km/hScattered Clouds
7:17 PM25 °C22 °C83 %1013.5 hPa16.1 kmNE (50°)18.5 km/hMostly Cloudy
7:19 PM25 °C22 °C83 %1013.5 hPa16.1 kmNE (50°)20.4 km/hScattered Clouds
7:21 PM25 °C22 °C83 %1013.9 hPa16.1 kmNE (50°)18.5 km/hMostly Cloudy
7:23 PM25 °C22 °C83 %1013.9 hPa16.1 kmENE (60°)20.4 km/hScattered Clouds
8:55 PM24.7 °C21.2 °C81 %1014.6 hPa16.1 kmENE (70°)18.5 km/h0 mmScattered Clouds
9:55 PM25 °C21.6 °C81 %1014.9 hPa16.1 kmEast (80°)16.7 km/hScattered Clouds
10:25 PM25 °C22 °C83 %1014.9 hPa16.1 kmENE (70°)18.5 km/hMostly Cloudy
10:31 PM25 °C22 °C83 %1014.9 hPa16.1 kmEast (80°)20.4 km/hScattered Clouds
10:55 PM25.3 °C22.2 °C83 %1014.9 hPa16.1 kmEast (90°)20.4 km/hScattered Clouds
10:57 PM25 °C22 °C83 %1014.9 hPa16.1 kmEast (90°)22.2 km/hMostly Cloudy
11:00 PM25 °C22 °C83 %1014.9 hPa16.1 kmEast (80°)20.4 km/hScattered Clouds
11:55 PM25.1 °C21.7 °C81 %1014.9 hPa16.1 kmEast (80°)20.4 km/hPartly Cloudy
Hourly data recorded from PGUA, located 0 kilometers away from Merizo, Guam







STORIES FROM OUR PARTNERS